Time,TemperatureF,DewpointF,PressureIn,WindDirection,WindDirectionDegrees,WindSpeedMPH,WindSpeedGustMPH,Humidity,HourlyPrecipIn,Conditions,Clouds,dailyrainin,SoftwareType,DateUTC
2013-01-26 00:02:00,40.0,35.0,30.26,SW,226,0.0,1.0,81,0.00,,,0.00,,2013-01-26 06:02:00,
2013-01-26 00:12:00,40.0,35.0,30.26,SW,226,0.0,1.0,81,0.00,,,0.00,,2013-01-26 06:12:00,
2013-01-26 00:21:00,40.0,35.0,30.26,SW,227,0.0,0.0,82,0.00,,,0.00,,2013-01-26 06:21:00,
2013-01-26 00:32:00,40.0,35.0,30.27,WSW,246,0.0,0.0,83,0.00,,,0.00,,2013-01-26 06:32:00,
2013-01-26 00:41:00,40.0,35.0,30.27,WSW,246,0.0,0.0,83,0.00,,,0.00,,2013-01-26 06:41:00,
2013-01-26 00:51:00,40.0,35.0,30.26,West,267,0.0,1.0,83,0.00,,,0.00,,2013-01-26 06:51:00,
2013-01-26 01:02:00,39.0,34.0,30.25,NW,312,0.0,1.0,83,0.00,,,0.00,,2013-01-26 07:02:00,
2013-01-26 01:12:00,39.0,34.0,30.25,NW,312,0.0,1.0,83,0.00,,,0.00,,2013-01-26 07:12:00,
2013-01-26 01:21:00,39.0,34.0,30.25,NW,312,0.0,1.0,83,0.00,,,0.00,,2013-01-26 07:21:00,
2013-01-26 01:33:00,39.0,35.0,30.26,North,356,0.0,2.0,84,0.00,,,0.00,,2013-01-26 07:33:00,
2013-01-26 01:41:00,39.0,35.0,30.26,North,356,0.0,2.0,84,0.00,,,0.00,,2013-01-26 07:41:00,
2013-01-26 01:52:00,39.0,35.0,30.27,North,351,0.0,1.0,84,0.00,,,0.00,,2013-01-26 07:52:00,
2013-01-26 02:02:00,38.0,34.0,30.27,North,351,0.0,0.0,85,0.00,,,0.00,,2013-01-26 08:02:00,
2013-01-26 02:11:00,38.0,34.0,30.27,North,351,0.0,0.0,85,0.00,,,0.00,,2013-01-26 08:11:00,
2013-01-26 02:21:00,38.0,34.0,30.27,NNE,27,1.0,3.0,85,0.00,,,0.00,,2013-01-26 08:21:00,
2013-01-26 02:32:00,39.0,34.0,30.25,NNE,33,0.0,3.0,83,0.00,,,0.00,,2013-01-26 08:32:00,
2013-01-26 02:42:00,39.0,34.0,30.25,NNE,33,0.0,3.0,83,0.00,,,0.00,,2013-01-26 08:42:00,
2013-01-26 02:53:00,39.0,34.0,30.24,NE,44,1.0,4.0,83,0.00,,,0.00,,2013-01-26 08:53:00,
2013-01-26 03:02:00,39.0,34.0,30.25,East,84,2.0,6.0,82,0.00,,,0.00,,2013-01-26 09:02:00,
2013-01-26 03:11:00,39.0,34.0,30.25,East,84,2.0,6.0,82,0.00,,,0.00,,2013-01-26 09:11:00,
2013-01-26 03:22:00,39.0,34.0,30.24,ENE,65,1.0,3.0,83,0.00,,,0.00,,2013-01-26 09:22:00,
2013-01-26 03:32:00,38.0,34.0,30.24,NNE,26,0.0,2.0,84,0.00,,,0.00,,2013-01-26 09:32:00,
2013-01-26 03:42:00,38.0,34.0,30.24,NNE,26,0.0,2.0,84,0.00,,,0.00,,2013-01-26 09:42:00,
2013-01-26 03:51:00,38.0,34.0,30.24,NE,50,0.0,2.0,85,0.00,,,0.00,,2013-01-26 09:51:00,
2013-01-26 04:01:00,39.0,35.0,30.24,SE,132,1.0,4.0,84,0.00,,,0.00,,2013-01-26 10:01:00,
2013-01-26 04:11:00,39.0,35.0,30.24,SE,132,1.0,4.0,84,0.00,,,0.00,,2013-01-26 10:11:00,
2013-01-26 04:21:00,40.0,36.0,30.24,ENE,67,1.0,4.0,84,0.00,,,0.00,,2013-01-26 10:21:00,
2013-01-26 04:32:00,39.0,35.0,30.24,East,86,0.0,3.0,87,0.00,,,0.00,,2013-01-26 10:32:00,
2013-01-26 04:42:00,39.0,35.0,30.24,East,86,0.0,3.0,87,0.00,,,0.00,,2013-01-26 10:42:00,
2013-01-26 04:52:00,39.0,36.0,30.24,East,85,0.0,1.0,89,0.00,,,0.00,,2013-01-26 10:52:00,
2013-01-26 05:01:00,39.0,36.0,30.23,East,85,0.0,0.0,90,0.00,,,0.00,,2013-01-26 11:01:00,
2013-01-26 05:12:00,39.0,36.0,30.23,East,85,0.0,0.0,90,0.00,,,0.00,,2013-01-26 11:12:00,
2013-01-26 05:22:00,39.0,37.0,30.24,East,85,0.0,0.0,91,0.00,,,0.00,,2013-01-26 11:22:00,
2013-01-26 05:32:00,39.0,37.0,30.23,East,85,0.0,1.0,93,0.00,,,0.00,,2013-01-26 11:32:00,
2013-01-26 05:42:00,39.0,37.0,30.23,East,85,0.0,1.0,93,0.00,,,0.00,,2013-01-26 11:42:00,
2013-01-26 05:52:00,39.0,37.0,30.23,East,85,0.0,1.0,93,0.00,,,0.00,,2013-01-26 11:52:00,
2013-01-26 06:02:00,39.0,37.0,30.23,ENE,63,0.0,1.0,94,0.00,,,0.00,,2013-01-26 12:02:00,
2013-01-26 06:12:00,39.0,37.0,30.23,ENE,63,0.0,1.0,94,0.00,,,0.00,,2013-01-26 12:12:00,
2013-01-26 06:22:00,40.0,38.0,30.23,East,79,0.0,2.0,94,0.00,,,0.00,,2013-01-26 12:22:00,
2013-01-26 06:33:00,40.0,39.0,30.23,East,79,0.0,0.0,95,0.00,,,0.00,,2013-01-26 12:33:00,
2013-01-26 06:42:00,40.0,39.0,30.23,East,79,0.0,0.0,95,0.00,,,0.00,,2013-01-26 12:42:00,
2013-01-26 06:52:00,40.0,39.0,30.23,East,79,0.0,0.0,95,0.00,,,0.00,,2013-01-26 12:52:00,
2013-01-26 07:03:00,40.0,39.0,30.24,East,79,0.0,0.0,95,0.00,,,0.00,,2013-01-26 13:03:00,
2013-01-26 07:12:00,40.0,39.0,30.24,East,79,0.0,0.0,95,0.00,,,0.00,,2013-01-26 13:12:00,
2013-01-26 07:22:00,40.0,39.0,30.24,East,79,0.0,0.0,95,0.00,,,0.00,,2013-01-26 13:22:00,
2013-01-26 07:32:00,41.0,40.0,30.24,East,79,0.0,0.0,96,0.01,,,0.01,,2013-01-26 13:32:00,
2013-01-26 07:42:00,41.0,40.0,30.24,East,79,0.0,0.0,96,0.01,,,0.01,,2013-01-26 13:42:00,
2013-01-26 07:52:00,41.0,40.0,30.24,East,81,0.0,0.0,96,0.01,,,0.01,,2013-01-26 13:52:00,
2013-01-26 08:03:00,41.0,40.0,30.24,East,81,0.0,0.0,96,0.01,,,0.01,,2013-01-26 14:03:00,
2013-01-26 08:12:00,41.0,40.0,30.24,East,81,0.0,0.0,96,0.01,,,0.01,,2013-01-26 14:12:00,
2013-01-26 08:22:00,41.0,40.0,30.25,East,81,0.0,0.0,96,0.01,,,0.01,,2013-01-26 14:22:00,
2013-01-26 08:32:00,42.0,41.0,30.25,East,91,0.0,1.0,96,0.00,,,0.01,,2013-01-26 14:32:00,
2013-01-26 08:43:00,42.0,41.0,30.25,East,91,0.0,1.0,96,0.00,,,0.01,,2013-01-26 14:43:00,
2013-01-26 08:52:00,42.0,41.0,30.25,East,101,0.0,2.0,96,0.00,,,0.01,,2013-01-26 14:52:00,
2013-01-26 09:03:00,43.0,42.0,30.25,SE,128,0.0,4.0,97,0.00,,,0.01,,2013-01-26 15:03:00,
2013-01-26 09:12:00,43.0,42.0,30.25,SE,128,0.0,4.0,97,0.00,,,0.01,,2013-01-26 15:12:00,
2013-01-26 09:22:00,43.0,42.0,30.25,SE,128,0.0,4.0,97,0.00,,,0.01,,2013-01-26 15:22:00,
2013-01-26 09:32:00,43.0,42.0,30.26,East,94,2.0,4.0,97,0.00,,,0.01,,2013-01-26 15:32:00,
2013-01-26 09:43:00,43.0,42.0,30.26,East,94,2.0,4.0,97,0.00,,,0.01,,2013-01-26 15:43:00,
2013-01-26 09:53:00,44.0,43.0,30.27,East,95,1.0,7.0,97,0.00,,,0.01,,2013-01-26 15:53:00,
2013-01-26 10:02:00,44.0,43.0,30.27,East,95,1.0,7.0,97,0.00,,,0.01,,2013-01-26 16:02:00,
2013-01-26 10:12:00,44.0,43.0,30.27,East,95,1.0,7.0,97,0.00,,,0.01,,2013-01-26 16:12:00,
2013-01-26 10:22:00,44.0,43.0,30.28,SE,146,1.0,4.0,97,0.00,,,0.01,,2013-01-26 16:22:00,
2013-01-26 10:33:00,45.0,44.0,30.28,SE,126,1.0,4.0,97,0.00,,,0.01,,2013-01-26 16:33:00,
2013-01-26 10:42:00,45.0,44.0,30.28,SE,126,1.0,4.0,97,0.00,,,0.01,,2013-01-26 16:42:00,
2013-01-26 10:53:00,45.0,44.0,30.28,SSE,147,3.0,6.0,97,0.00,,,0.01,,2013-01-26 16:53:00,
2013-01-26 11:03:00,45.0,44.0,30.28,ESE,110,1.0,7.0,96,0.00,,,0.01,,2013-01-26 17:03:00,
2013-01-26 11:12:00,45.0,44.0,30.28,ESE,110,1.0,7.0,96,0.00,,,0.01,,2013-01-26 17:12:00,
2013-01-26 11:22:00,45.0,44.0,30.28,SSE,149,1.0,5.0,96,0.00,,,0.01,,2013-01-26 17:22:00,
2013-01-26 11:33:00,45.0,44.0,30.27,SW,222,3.0,6.0,96,0.00,,,0.01,,2013-01-26 17:33:00,
2013-01-26 11:42:00,45.0,44.0,30.27,SW,222,3.0,6.0,96,0.00,,,0.01,,2013-01-26 17:42:00,
2013-01-26 11:52:00,45.0,44.0,30.27,SE,131,1.0,6.0,96,0.00,,,0.01,,2013-01-26 17:52:00,
2013-01-26 12:02:00,45.0,44.0,30.26,SE,131,3.0,7.0,96,0.00,,,0.01,,2013-01-26 18:02:00,
2013-01-26 12:12:00,45.0,44.0,30.26,SE,131,3.0,7.0,96,0.00,,,0.01,,2013-01-26 18:12:00,
2013-01-26 12:22:00,46.0,45.0,30.26,SE,143,0.0,4.0,96,0.00,,,0.01,,2013-01-26 18:22:00,
2013-01-26 12:33:00,46.0,45.0,30.25,ESE,117,2.0,5.0,96,0.00,,,0.01,,2013-01-26 18:33:00,
2013-01-26 12:42:00,46.0,45.0,30.25,ESE,117,2.0,5.0,96,0.00,,,0.01,,2013-01-26 18:42:00,
2013-01-26 12:52:00,46.0,45.0,30.25,SE,138,1.0,5.0,95,0.00,,,0.01,,2013-01-26 18:52:00,
2013-01-26 13:03:00,46.0,45.0,30.23,SSW,193,1.0,6.0,95,0.00,,,0.01,,2013-01-26 19:03:00,
2013-01-26 13:12:00,46.0,45.0,30.23,SSW,193,1.0,6.0,95,0.00,,,0.01,,2013-01-26 19:12:00,
2013-01-26 13:22:00,46.0,45.0,30.22,ESE,108,3.0,6.0,95,0.00,,,0.01,,2013-01-26 19:22:00,
2013-01-26 13:32:00,47.0,45.0,30.22,SE,132,2.0,5.0,94,0.00,,,0.01,,2013-01-26 19:32:00,
2013-01-26 13:42:00,47.0,45.0,30.22,SE,132,2.0,5.0,94,0.00,,,0.01,,2013-01-26 19:42:00,
2013-01-26 13:52:00,47.0,45.0,30.21,SE,125,1.0,5.0,93,0.00,,,0.01,,2013-01-26 19:52:00,
2013-01-26 14:02:00,47.0,45.0,30.19,ESE,121,2.0,5.0,92,0.00,,,0.01,,2013-01-26 20:02:00,
2013-01-26 14:11:00,47.0,45.0,30.19,ESE,121,2.0,5.0,92,0.00,,,0.01,,2013-01-26 20:11:00,
2013-01-26 14:21:00,47.0,45.0,30.19,ENE,64,2.0,6.0,92,0.00,,,0.01,,2013-01-26 20:21:00,
2013-01-26 14:32:00,47.0,45.0,30.18,SSE,161,2.0,6.0,92,0.00,,,0.01,,2013-01-26 20:32:00,
2013-01-26 14:42:00,47.0,45.0,30.18,SSE,161,2.0,6.0,92,0.00,,,0.01,,2013-01-26 20:42:00,
2013-01-26 14:52:00,47.0,45.0,30.18,SE,134,2.0,5.0,92,0.00,,,0.01,,2013-01-26 20:52:00,
2013-01-26 15:02:00,48.0,45.0,30.18,ESE,108,1.0,7.0,91,0.00,,,0.01,,2013-01-26 21:02:00,
2013-01-26 15:12:00,48.0,45.0,30.18,ESE,108,1.0,7.0,91,0.00,,,0.01,,2013-01-26 21:12:00,
2013-01-26 15:22:00,48.0,45.0,30.18,ENE,65,3.0,5.0,90,0.00,,,0.01,,2013-01-26 21:22:00,
2013-01-26 15:32:00,48.0,45.0,30.19,ESE,115,1.0,5.0,90,0.00,,,0.01,,2013-01-26 21:32:00,
2013-01-26 15:42:00,48.0,45.0,30.19,ESE,115,1.0,5.0,90,0.00,,,0.01,,2013-01-26 21:42:00,
2013-01-26 15:51:00,47.0,44.0,30.17,SE,125,2.0,7.0,90,0.00,,,0.01,,2013-01-26 21:51:00,
2013-01-26 16:01:00,48.0,45.0,30.18,SE,129,2.0,7.0,90,0.00,,,0.01,,2013-01-26 22:01:00,
2013-01-26 16:11:00,48.0,45.0,30.18,SE,129,2.0,7.0,90,0.00,,,0.01,,2013-01-26 22:11:00,
2013-01-26 16:21:00,48.0,45.0,30.18,South,187,1.0,4.0,90,0.00,,,0.01,,2013-01-26 22:21:00,
2013-01-26 16:32:00,48.0,45.0,30.18,SSW,195,2.0,5.0,90,0.00,,,0.01,,2013-01-26 22:32:00,
2013-01-26 16:42:00,48.0,45.0,30.18,SSW,195,2.0,5.0,90,0.00,,,0.01,,2013-01-26 22:42:00,
2013-01-26 16:52:00,47.0,45.0,30.18,SW,233,1.0,5.0,91,0.00,,,0.01,,2013-01-26 22:52:00,
2013-01-26 17:01:00,47.0,45.0,30.18,ESE,110,0.0,6.0,91,0.00,,,0.01,,2013-01-26 23:01:00,
2013-01-26 17:11:00,47.0,45.0,30.18,ESE,110,0.0,6.0,91,0.00,,,0.01,,2013-01-26 23:11:00,
2013-01-26 17:22:00,47.0,45.0,30.18,ESE,113,0.0,3.0,91,0.00,,,0.01,,2013-01-26 23:22:00,
2013-01-26 17:32:00,47.0,45.0,30.17,South,187,2.0,6.0,92,0.00,,,0.01,,2013-01-26 23:32:00,
2013-01-26 17:42:00,47.0,45.0,30.17,South,187,2.0,6.0,92,0.00,,,0.01,,2013-01-26 23:42:00,
2013-01-26 17:52:00,46.0,44.0,30.17,SE,142,1.0,7.0,93,0.00,,,0.01,,2013-01-26 23:52:00,
2013-01-26 18:02:00,46.0,44.0,30.17,East,93,1.0,5.0,93,0.00,,,0.01,,2013-01-27 00:02:00,
2013-01-26 18:11:00,46.0,44.0,30.17,East,93,1.0,5.0,93,0.00,,,0.01,,2013-01-27 00:11:00,
2013-01-26 18:21:00,46.0,44.0,30.17,ESE,108,1.0,4.0,94,0.00,,,0.01,,2013-01-27 00:21:00,
2013-01-26 18:32:00,45.0,44.0,30.18,ESE,120,0.0,5.0,95,0.00,,,0.01,,2013-01-27 00:32:00,
2013-01-26 18:42:00,45.0,44.0,30.18,ESE,120,0.0,5.0,95,0.00,,,0.01,,2013-01-27 00:42:00,
2013-01-26 18:51:00,45.0,44.0,30.18,ESE,120,2.0,5.0,95,0.00,,,0.01,,2013-01-27 00:51:00,
2013-01-26 19:01:00,45.0,44.0,30.18,SE,134,1.0,4.0,96,0.00,,,0.01,,2013-01-27 01:01:00,
2013-01-26 19:11:00,45.0,44.0,30.18,SE,134,1.0,4.0,96,0.00,,,0.01,,2013-01-27 01:11:00,
2013-01-26 19:22:00,45.0,44.0,30.18,East,100,2.0,6.0,96,0.00,,,0.01,,2013-01-27 01:22:00,
2013-01-26 19:32:00,45.0,44.0,30.17,East,86,2.0,8.0,96,0.00,,,0.01,,2013-01-27 01:32:00,
2013-01-26 19:41:00,45.0,44.0,30.17,East,86,2.0,8.0,96,0.00,,,0.01,,2013-01-27 01:41:00,
2013-01-26 19:52:00,45.0,44.0,30.17,East,91,2.0,5.0,96,0.00,,,0.01,,2013-01-27 01:52:00,
2013-01-26 20:01:00,45.0,44.0,30.18,ESE,106,1.0,7.0,97,0.00,,,0.01,,2013-01-27 02:01:00,
2013-01-26 20:11:00,45.0,44.0,30.18,ESE,106,1.0,7.0,97,0.00,,,0.01,,2013-01-27 02:11:00,
2013-01-26 20:22:00,45.0,44.0,30.17,ESE,114,3.0,6.0,97,0.00,,,0.01,,2013-01-27 02:22:00,
2013-01-26 20:32:00,45.0,44.0,30.18,ESE,115,1.0,8.0,97,0.00,,,0.01,,2013-01-27 02:32:00,
2013-01-26 20:42:00,45.0,44.0,30.18,ESE,115,1.0,8.0,97,0.00,,,0.01,,2013-01-27 02:42:00,
2013-01-26 20:52:00,45.0,44.0,30.17,South,174,2.0,6.0,97,0.00,,,0.01,,2013-01-27 02:52:00,
2013-01-26 21:02:00,45.0,44.0,30.16,SSW,208,1.0,8.0,97,0.00,,,0.01,,2013-01-27 03:02:00,
2013-01-26 21:11:00,45.0,44.0,30.16,SSW,208,1.0,8.0,97,0.00,,,0.01,,2013-01-27 03:11:00,
2013-01-26 21:21:00,45.0,44.0,30.16,East,101,2.0,8.0,97,0.00,,,0.01,,2013-01-27 03:21:00,
2013-01-26 21:32:00,45.0,44.0,30.16,ESE,119,3.0,7.0,97,0.00,,,0.01,,2013-01-27 03:32:00,
2013-01-26 21:42:00,45.0,44.0,30.16,ESE,119,3.0,7.0,97,0.00,,,0.01,,2013-01-27 03:42:00,
2013-01-26 21:51:00,45.0,44.0,30.15,East,101,2.0,10.0,97,0.00,,,0.01,,2013-01-27 03:51:00,
2013-01-26 22:02:00,45.0,44.0,30.14,SSE,162,2.0,8.0,97,0.00,,,0.01,,2013-01-27 04:02:00,
2013-01-26 22:11:00,45.0,44.0,30.14,SSE,162,2.0,8.0,97,0.00,,,0.01,,2013-01-27 04:11:00,
2013-01-26 22:21:00,45.0,44.0,30.15,SSW,195,3.0,8.0,97,0.00,,,0.01,,2013-01-27 04:21:00,
2013-01-26 22:32:00,45.0,44.0,30.15,SE,143,2.0,7.0,98,0.00,,,0.01,,2013-01-27 04:32:00,
2013-01-26 22:41:00,45.0,44.0,30.15,SE,143,2.0,7.0,98,0.00,,,0.01,,2013-01-27 04:41:00,
2013-01-26 22:51:00,45.0,44.0,30.15,SE,127,0.0,5.0,98,0.00,,,0.01,,2013-01-27 04:51:00,
2013-01-26 23:03:00,45.0,44.0,30.14,ESE,105,1.0,4.0,98,0.00,,,0.01,,2013-01-27 05:03:00,
2013-01-26 23:12:00,45.0,44.0,30.14,ESE,105,1.0,4.0,98,0.00,,,0.01,,2013-01-27 05:12:00,
2013-01-26 23:22:00,45.0,44.0,30.14,ESE,117,1.0,6.0,98,0.00,,,0.01,,2013-01-27 05:22:00,
2013-01-26 23:32:00,45.0,44.0,30.14,ENE,76,2.0,9.0,98,0.00,,,0.01,,2013-01-27 05:32:00,
2013-01-26 23:41:00,45.0,44.0,30.14,ENE,76,2.0,9.0,98,0.00,,,0.01,,2013-01-27 05:41:00,
2013-01-26 23:52:00,45.0,44.0,30.14,ESE,113,1.0,5.0,98,0.00,,,0.01,,2013-01-27 05:52:00,